User: anonymous   Login
Location: Unspecified
(0.0000°N, 0.0000°E)
Time: 21:53:24
(UTC+00:00)
Language:

Himawari - Orbit

View from above orbital plane
View from above orbital plane
View from above satellite
View from above satellite

Ground track
Ground track

The orbit data is extracted from the following two-line orbital elements,

1 10143U 77065A   18343.81437413 -.00000311 +00000-0 +00000-0 0  9990
2 10143 012.5839 321.0514 0013238 176.3625 015.2258 00.99252371093960
Epoch (UTC): 09 December 2018 19:32:41
Eccentricity: 0.0013238
inclination: 12.5839°
perigee height: 36018 km
apogee height: 36130 km
right ascension of ascending node: 321.0514°
argument of perigee: 176.3625°
revolutions per day: 0.99252371
mean anomaly at epoch: 15.2258°
orbit number at epoch: 9396

The dashed part of the orbit path shows where the satellite is in the earth's shadow,  

DLR